Weather History for South Lake Tahoe, CA

Change the Weather History Date:

Wednesday, May 28, 2014

  Actual Average Record
Temperature  
Mean Temperature 52 °F 51 °F  
Max Temperature 67 °F 67 °F 84 °F (2003)
Min Temperature 36 °F 34 °F 25 °F (2006)
Degree Days  
Heating Degree Days 13 14  
Month to date heating degree days 410 489  
Since 1 July heating degree days 6451 7379  
Cooling Degree Days 0 0  
Month to date cooling degree days 0 0  
Year to date cooling degree days 0 0  
Growing Degree Days 5 (Base 50)    
Moisture  
Dew Point 14 °F    
Average Humidity 31    
Maximum Humidity 54    
Minimum Humidity 7    
Precipitation  
Precipitation 0.00 in - 0.44 in (1945)
Month to date precipitation 1.30  
Year to date precipitation 12.40  
Sea Level Pressure  
Sea Level Pressure 29.95 in    
Wind  
Wind Speed 9 mph (South)    
Max Wind Speed 22 mph    
Max Gust Speed 32 mph    
Visibility 10 miles    
Events      
T = Trace of Precipitation, MM = Missing Value Source: NWS Daily Summary

Daily Weather History Graph

Daily Weather History Graph

Search for Another Location

Airport:

Trip Planner

Search our weather history database for the weather conditions in past years. The results will help you decide how hot, cold, wet, or windy it might be!

Date:

Astronomy

May. 28, 2014 Rise Set
Actual Time 5:38 AM PDT 8:16 PM PDT
Civil Twilight 5:07 AM PDT 8:47 PM PDT
Nautical Twilight 4:28 AM PDT 9:26 PM PDT
Astronomical Twilight 3:44 AM PDT 10:10 PM PDT
Moon 5:47 AM PDT (5/28) 8:20 PM PDT (5/28)
Length of Visible Light 15h 40m
Length of Day
14h 38m
New Moon, 0% of the Moon is Illuminated
May 28
New Moon
Jun 5
First Quarter
Jun 12
Full
Jun 19
Last Quarter
Jun 27
New

Hourly Weather History & Observations

Time (PDT) Temp. Dew Point Humidity Pressure Visibility Wind Dir Wind Speed Gust Speed Precip Events Conditions
12:53 AM 54.0 °F 24.1 °F 31% 29.94 in 10.0 mi SSE 10.4 mph - N/A   Clear
1:53 AM 53.1 °F 24.1 °F 32% 29.94 in 10.0 mi SSE 11.5 mph - N/A   Clear
2:53 AM 52.0 °F 23.0 °F 32% 29.94 in 10.0 mi South 9.2 mph - N/A   Clear
3:53 AM 52.0 °F 23.0 °F 32% 29.92 in 10.0 mi SSE 9.2 mph - N/A   Clear
4:53 AM 51.1 °F 21.0 °F 31% 29.92 in 10.0 mi SSE 9.2 mph - N/A   Clear
6:53 AM 53.1 °F 12.0 °F 20% 29.93 in 10.0 mi SE 8.1 mph - N/A   Clear
7:53 AM 55.9 °F 12.0 °F 18% 29.92 in 10.0 mi ESE 5.8 mph - N/A   Clear
8:53 AM 60.1 °F -0.0 °F 9% 29.94 in 10.0 mi South 10.4 mph - N/A   Clear
9:53 AM 62.1 °F -2.0 °F 8% 29.93 in 10.0 mi South 13.8 mph 23.0 mph N/A   Clear
11:53 AM 64.0 °F 1.9 °F 8% 29.94 in 10.0 mi Variable 5.8 mph 17.3 mph N/A   Clear
12:53 PM 66.0 °F 18.0 °F 16% 29.94 in 10.0 mi South 18.4 mph 27.6 mph N/A   Clear
1:53 PM 64.9 °F 16.0 °F 15% 29.95 in 10.0 mi South 15.0 mph 25.3 mph N/A   Clear
4:53 PM 64.9 °F 7.0 °F 10% 29.94 in 10.0 mi SSW 11.5 mph 17.3 mph N/A   Clear
5:53 PM 63.0 °F 3.0 °F 9% 29.95 in 10.0 mi SSW 8.1 mph 16.1 mph N/A   Clear
6:53 PM 60.1 °F 5.0 °F 11% 29.95 in 10.0 mi Variable 6.9 mph - N/A   Clear
7:53 PM 53.1 °F 16.0 °F 23% 29.97 in 10.0 mi Calm Calm - N/A   Clear
8:53 PM 46.9 °F 21.0 °F 36% 29.98 in 10.0 mi Calm Calm - N/A   Clear
9:53 PM 44.1 °F 21.9 °F 42% 30.00 in 10.0 mi Calm Calm - N/A   Clear
11:53 PM 37.0 °F 21.9 °F 54% 30.02 in 10.0 mi Calm Calm - N/A   Clear